Upstream stations:
Downstream station:
SHEF ID: CHNK1 Cheney Lake
STATION TYPE: RESERVOIR
Flood Pool: Bottom = 1421.60, Top = 1429.00
PRECIP ELEVATION STORAGE INFLOW RELEASE WIND-DIRWIND-SPEED VOLTAGE
in ft ac-ft cfs cfs deg mph volt
Ccp-Rev Ccp-Rev Ccp-Rev Rev-Regi Rev-Regi Ccp-Rev Ccp-Rev Ccp-Rev
(US/Central)
09/07 00:00 0.01 1420.34 155333 0 0 177.50 9.80 13.13
09/07 01:00 0.01 1420.34 155333 0 0 186.40 9.00 13.13
09/07 02:00 0.01 1420.34 155333 0 0 186.40 6.90 13.13
09/07 03:00 0.01 1420.33 155242 0 0 183.60 7.20 13.13
09/07 04:00 0.00 1420.33 155242 0 0 184.40 6.30 13.14
09/07 05:00 0.01 1420.34 155333 0 0 186.60 6.60 13.14
09/07 06:00 0.00 1420.34 155333 0 0 189.00 7.60 13.16
09/07 07:00 0.01 1420.33 155242 0 0 187.80 8.00 13.14
09/07 08:00 0.00 1420.33 155242 0 0 187.10 7.60 13.16
09/07 09:00 0.01 1420.33 155242 0 0 189.50 9.00 13.16
09/07 10:00 0.00 1420.32 155150 0 0 ---- ---- 13.16
09/07 11:00 0.00 1420.33 155242 0 0 ---- ---- 13.16
09/07 12:00 0.01 1420.33 155242 0 0 ---- ---- 13.15
09/07 13:00 0.00 1420.34 155333 0 0 ---- ---- 13.15
09/07 14:00 0.00 1420.33 155242 0 0 ---- ---- 13.13
09/07 15:00 0.00 1420.33 155242 221 0 ---- ---- 13.13
09/07 16:00 0.01 1420.33 155242 221 0 ---- ---- 13.13
09/07 17:00 0.00 1420.37 155608 221 0 ---- ---- 13.12
09/07 18:00 0.00 1420.36 155516 221 0 ---- ---- 13.11
09/07 19:00 0.00 1420.34 155333 221 0 ---- ---- 13.11
09/07 20:00 0.00 1420.34 155333 0 0 ---- ---- 13.12
09/07 21:00 0.00 1420.34 155333 0 0 ---- ---- 13.12
09/07 22:00 0.00 1420.34 155333 0 0 ---- ---- 13.13
09/07 23:00 0.00 1420.34 155333 0 0 ---- ---- 13.13